Theta_e
306 306 307 307 307 307 308 308 308 309 308 307 309 310 310 310 309 309 309 309 308 309 308 308 308 309 309 309 309 308 309 309 309 309 310 312 312 314 318 319 319 320 321 317 319 324 323 329 335 338 342 344 345 347 348 346 347 351 362 364 358 359 357 355 357 354 357 357 356 356 355 356 355 354 355 355 355 355 356 355 353 352 352 353 352 350 348 349
306 306 307 307 307 307 307 308 308 309 309 308 308 309 310 310 310 310 309 309 309 309 309 309 309 309 309 309 309 309 310 310 311 312 313 317 318 316 316 319 320 319 320 319 323 330 332 336 336 337 340 344 346 346 347 346 346 349 360 362 358 359 357 353 354 354 356 355 355 357 355 356 356 354 356 357 355 355 355 355 353 352 353 353 351 350 349 349
306 306 306 306 307 307 308 308 309 309 309 309 308 309 310 310 310 310 310 310 309 309 309 309 309 309 309 309 309 309 309 312 319 324 326 325 322 319 316 316 318 318 319 318 324 334 336 338 336 337 341 345 346 344 345 345 346 347 353 359 358 354 355 353 353 354 355 354 356 356 354 354 354 354 357 358 355 355 355 354 353 353 353 352 351 349 348 348
306 306 306 307 307 307 308 309 309 309 309 310 309 309 310 310 310 310 310 310 309 310 309 309 309 309 309 308 310 309 311 321 329 333 333 329 324 320 316 314 315 317 320 318 325 337 337 336 336 338 343 346 347 344 344 344 345 348 348 352 352 352 354 352 353 353 352 353 355 356 353 353 354 354 356 357 357 359 356 354 353 353 353 352 351 349 348 349
305 306 306 306 307 307 308 309 310 310 310 310 310 310 310 310 311 310 310 310 309 310 309 309 309 309 309 309 311 309 316 329 333 332 332 327 322 320 317 314 313 316 319 318 326 337 335 334 336 340 344 344 346 343 343 344 344 346 348 348 347 351 354 352 352 353 352 352 354 355 355 354 352 353 354 355 360 361 356 353 353 353 353 353 352 349 348 348
305 306 306 306 306 307 309 310 311 311 311 310 310 310 310 310 310 310 310 310 310 310 309 309 308 309 310 311 312 312 321 329 329 328 328 322 320 319 318 315 312 315 319 318 325 334 333 332 335 339 343 342 343 342 342 344 344 345 347 346 346 350 353 351 349 352 353 353 356 355 354 353 352 354 355 354 357 358 355 353 352 352 352 353 351 349 349 349
305 306 306 306 307 307 309 311 311 312 311 310 310 310 310 310 310 310 310 310 310 309 308 308 309 310 312 312 312 317 325 327 326 326 323 322 320 318 319 318 314 314 318 319 325 333 332 332 334 337 342 342 342 341 341 342 342 345 345 344 347 350 351 350 348 351 353 353 354 353 352 354 354 354 355 353 355 353 355 354 351 352 351 352 352 351 351 349
305 305 306 306 307 307 309 311 312 312 312 311 311 310 310 310 310 310 311 310 310 309 309 308 310 312 313 312 315 321 325 326 325 323 321 321 321 318 316 318 317 316 317 319 327 334 333 331 335 337 341 341 341 340 341 341 340 342 342 342 346 350 348 346 349 350 352 353 352 351 352 355 354 353 353 352 353 352 354 353 350 351 351 351 351 351 352 350
306 305 306 307 307 307 309 311 312 313 312 312 311 310 309 309 310 310 310 310 310 309 308 308 310 313 314 313 318 324 324 323 323 320 319 321 322 319 314 316 318 318 317 320 329 333 331 331 335 338 338 339 340 339 338 338 339 340 340 341 343 347 347 345 349 350 350 353 352 351 352 354 352 352 353 352 353 353 353 352 349 350 350 351 352 351 351 351
306 305 306 307 307 308 309 311 312 312 313 313 312 311 310 310 310 310 310 310 309 309 308 309 311 314 314 315 321 326 324 321 321 320 320 322 323 318 313 316 318 319 318 320 329 331 329 333 336 336 337 336 338 336 336 335 336 336 336 338 339 342 345 345 349 349 349 351 351 353 352 352 352 352 353 353 353 353 353 352 349 349 350 350 350 350 351 351
305 306 306 306 307 308 309 311 312 313 313 312 312 312 311 310 310 310 311 310 309 309 308 310 313 314 315 317 321 324 322 320 320 319 320 322 322 318 316 320 320 319 319 320 327 330 329 332 334 335 335 335 336 335 335 334 334 334 333 333 333 335 339 343 345 345 347 350 350 352 352 352 350 351 353 352 352 353 352 351 349 349 349 349 349 349 350 351
306 305 306 306 307 307 309 311 312 313 313 313 313 312 312 311 310 310 310 310 309 309 309 312 315 315 316 319 322 324 321 319 318 318 318 319 322 321 321 323 323 320 319 321 326 330 330 331 333 334 334 334 335 333 332 331 331 331 331 330 331 331 335 339 340 341 344 347 350 350 351 351 349 351 351 352 353 353 352 351 350 349 349 348 348 348 348 350
305 306 306 306 306 307 309 311 312 312 313 314 313 312 312 311 310 310 309 309 309 309 310 313 316 316 318 323 326 322 319 318 318 318 318 320 323 323 323 324 325 321 320 323 325 328 332 333 335 335 333 333 334 332 332 332 330 328 330 330 331 330 332 337 339 340 341 344 348 350 348 350 349 350 351 351 352 352 352 351 350 350 349 348 348 348 347 347
305 305 305 306 306 306 309 311 312 312 313 314 313 313 312 311 311 310 309 309 308 309 310 314 319 320 321 326 326 321 318 320 320 319 319 319 320 322 323 325 326 324 322 324 325 329 335 337 336 335 334 332 333 333 332 332 330 328 327 330 331 328 330 336 337 338 340 341 346 348 346 350 351 350 352 351 351 352 351 352 351 350 350 349 348 348 347 347
305 306 305 305 306 306 309 311 311 312 312 313 313 313 312 312 312 310 310 309 308 310 309 314 323 326 327 328 328 325 320 320 322 319 318 317 316 320 323 324 327 327 325 325 328 332 337 338 335 334 333 333 333 332 332 331 330 329 326 325 329 328 329 335 335 336 339 339 346 348 345 356 360 349 350 352 350 352 351 351 352 351 350 349 348 348 347 348
305 305 305 305 306 306 308 310 311 311 313 314 313 314 313 314 314 311 310 310 310 312 311 318 327 328 329 327 325 325 321 319 320 317 317 317 316 319 322 324 326 327 328 329 331 334 337 338 336 334 333 333 333 331 332 330 329 330 326 322 325 327 328 332 334 333 338 338 343 347 344 356 362 350 350 352 350 352 352 352 352 351 351 350 348 348 347 348
305 305 306 306 306 306 308 310 311 312 312 314 314 314 314 316 317 314 311 312 314 313 314 321 325 327 329 325 322 323 320 318 318 316 316 316 317 317 320 323 325 326 330 331 332 334 337 338 337 334 332 332 332 331 329 326 325 328 327 324 324 326 326 328 332 333 336 339 341 346 346 352 355 349 350 352 351 352 352 353 354 352 351 349 350 349 348 348
305 305 305 305 305 306 308 311 311 312 313 314 315 316 318 318 319 319 315 316 318 318 321 322 324 328 329 325 323 321 318 317 316 316 317 316 317 318 319 323 326 327 329 331 333 335 336 337 336 335 334 332 332 332 327 325 325 325 325 323 323 325 325 326 329 332 335 338 339 343 345 348 351 349 350 351 352 352 352 353 353 353 352 350 351 350 349 349
305 305 305 305 305 306 308 311 312 312 313 316 316 316 318 317 319 321 318 318 321 326 329 325 327 330 325 319 320 317 317 317 316 317 317 317 317 317 318 323 327 327 328 332 333 335 336 336 335 334 333 331 332 331 329 328 328 327 327 323 322 322 324 327 329 332 333 336 338 343 344 347 350 349 350 350 351 351 352 353 353 353 352 351 351 350 350 349
304 305 305 305 305 306 309 312 313 313 314 316 317 317 317 316 318 319 316 316 319 323 325 322 324 325 318 315 316 316 317 316 315 317 318 318 317 318 317 321 327 328 330 333 333 333 333 334 334 333 332 331 331 330 330 331 330 330 329 325 323 321 323 327 330 331 333 334 335 342 344 346 349 349 350 349 351 352 352 353 353 353 352 352 352 351 351 350
304 305 305 305 305 307 310 313 315 315 315 317 318 317 317 315 315 316 315 315 316 317 317 318 319 318 316 316 315 315 316 315 317 317 319 319 317 318 317 319 324 329 331 332 331 331 331 331 332 332 332 331 331 331 331 330 330 330 328 326 324 323 322 326 330 330 333 335 334 340 343 346 349 349 349 349 350 351 352 353 353 352 352 352 353 351 351 351
304 305 305 305 306 308 310 314 317 316 316 317 318 317 316 315 315 315 315 315 315 315 315 317 316 316 315 315 316 316 315 315 316 318 319 320 317 317 318 318 323 329 331 331 331 330 328 328 329 331 332 332 331 331 330 330 329 328 327 325 323 324 324 324 329 331 331 333 335 339 341 343 349 348 349 348 349 350 351 353 352 352 353 354 353 352 352 351
304 305 305 305 307 309 311 315 318 318 317 317 317 317 316 315 315 315 315 315 316 316 316 317 316 316 316 315 316 315 315 315 316 319 319 319 318 318 318 320 323 327 329 330 330 328 325 327 328 329 330 331 332 330 329 328 328 327 326 323 321 324 322 321 326 330 331 332 335 339 340 343 348 348 349 349 347 351 350 351 352 352 353 353 353 352 352 351
304 304 305 306 308 311 311 315 318 318 317 318 317 317 316 315 316 316 315 315 316 316 317 318 317 316 316 315 315 315 315 316 316 319 320 319 319 320 320 323 325 327 327 328 329 327 326 326 328 328 328 329 329 329 329 326 325 326 326 324 322 324 323 321 325 328 329 329 333 338 335 337 347 347 348 348 347 351 351 351 352 352 353 353 352 353 352 352
305 306 307 308 310 312 312 315 319 317 317 318 317 316 316 315 316 315 314 315 316 317 317 317 317 316 316 316 315 314 315 316 316 317 318 318 318 320 320 322 325 327 327 327 327 327 327 326 326 328 328 328 327 327 329 326 323 323 325 326 324 324 325 324 326 325 323 324 329 334 329 331 345 346 348 348 347 350 351 352 353 352 353 353 353 353 353 353
307 308 310 311 311 312 313 315 317 316 317 317 316 316 315 315 315 314 316 317 317 318 317 316 316 315 316 315 314 315 315 316 317 317 318 318 317 318 318 319 323 325 326 326 327 327 327 327 326 326 327 328 327 327 327 327 323 320 324 328 327 326 325 323 324 321 319 321 327 332 330 329 338 344 347 348 347 350 350 350 352 352 352 353 354 352 353 353
311 311 311 312 312 312 313 314 314 315 318 318 316 316 315 315 315 315 320 321 318 318 316 314 315 314 314 315 314 315 315 315 317 317 318 318 317 317 318 318 321 322 324 324 325 326 327 327 326 325 326 327 328 327 327 328 324 321 326 327 326 326 325 324 323 320 321 322 325 328 328 327 331 339 348 348 347 351 350 351 352 351 351 353 353 352 353 353
312 312 312 312 312 312 313 315 315 314 317 318 317 316 315 315 315 315 321 323 320 317 316 314 315 315 314 315 314 314 315 315 316 317 318 318 318 317 317 318 318 319 320 320 320 324 326 326 327 327 326 326 327 327 328 328 325 324 327 327 327 327 325 325 322 320 322 321 319 323 324 325 327 336 347 349 347 350 351 350 352 352 351 353 353 352 353 353
313 313 313 313 313 313 313 316 317 316 317 318 317 316 315 315 315 315 321 324 320 315 316 315 315 315 314 314 315 315 315 315 316 317 318 319 318 318 318 318 317 318 318 318 319 320 322 325 325 325 325 326 326 328 328 328 327 326 327 327 327 327 326 325 323 321 321 319 317 320 320 321 326 334 341 345 346 348 350 351 351 352 352 352 353 353 353 352
314 313 314 314 314 313 314 316 317 316 317 318 316 315 315 316 317 319 323 324 318 315 316 315 314 315 315 315 315 315 316 316 316 317 318 318 318 318 317 318 317 317 318 318 319 320 321 322 323 323 324 326 326 327 327 327 327 327 327 327 326 327 328 329 330 325 320 319 319 319 319 319 323 331 335 339 344 346 350 352 351 350 351 352 352 352 352 352
314 314 314 314 314 313 313 315 317 316 317 317 316 315 316 317 319 322 323 321 315 316 315 315 315 314 315 315 315 315 315 316 316 316 316 316 317 318 319 319 317 317 317 316 317 318 320 319 321 322 323 325 327 326 327 327 327 326 328 326 323 324 325 325 329 327 320 319 320 320 320 317 319 328 335 337 342 345 349 352 351 350 352 352 352 352 351 352
315 315 314 314 314 314 313 315 316 316 317 316 315 316 317 320 321 320 322 318 314 315 315 315 316 315 315 315 315 315 315 315 316 316 316 316 316 318 318 319 318 316 316 315 316 317 318 318 319 321 323 324 325 325 326 326 327 327 326 324 321 321 320 320 322 322 320 321 321 320 320 317 319 330 338 336 338 341 345 350 350 350 353 352 351 351 351 351
315 315 315 314 315 315 315 315 315 315 316 316 316 317 318 322 323 320 319 316 313 315 315 316 315 315 315 314 314 316 315 314 315 315 315 316 316 317 318 318 318 317 317 316 316 316 317 318 318 320 323 326 327 325 323 324 326 325 323 323 321 320 319 319 320 320 320 321 321 321 320 317 318 328 334 334 334 333 336 346 349 350 352 352 351 351 351 351
315 315 316 316 317 317 316 316 315 315 316 316 316 318 319 322 323 318 315 315 314 316 316 315 315 315 315 313 314 315 315 315 315 315 315 315 314 317 319 318 318 318 318 317 316 316 317 319 320 319 321 323 326 325 324 324 324 325 325 325 323 320 319 319 321 320 320 321 320 321 319 317 318 324 330 329 329 330 329 340 348 348 350 352 352 351 351 350
315 316 318 319 319 318 317 316 316 316 316 315 316 319 322 322 319 316 314 315 315 316 315 315 315 314 314 314 315 315 315 315 315 315 315 314 314 318 320 318 318 318 317 317 317 316 315 316 319 319 319 321 323 324 326 325 323 326 327 324 321 322 320 319 321 321 320 320 320 319 318 321 325 330 330 327 327 328 326 333 346 349 350 352 351 351 350 350
316 318 320 322 320 318 316 315 316 316 315 316 318 321 322 319 315 314 315 315 314 315 314 314 314 313 313 314 314 315 315 314 315 314 314 314 315 318 319 317 317 317 316 316 317 315 314 315 317 317 319 320 320 322 325 325 323 324 323 321 322 325 323 319 319 320 319 320 321 320 318 322 323 326 329 327 327 329 327 331 344 350 351 350 351 351 350 350
319 319 320 322 320 317 315 315 315 315 315 316 320 322 321 317 314 314 315 315 314 315 314 313 314 314 312 313 314 315 315 314 314 314 313 314 316 316 317 317 317 316 315 315 316 315 314 314 316 316 317 318 319 320 322 324 324 322 321 322 324 325 323 321 319 320 320 320 320 320 320 320 318 322 327 328 326 328 327 330 345 350 350 350 351 351 350 350
319 321 320 319 318 316 315 315 315 315 316 318 321 322 321 317 314 315 315 315 315 315 314 313 314 315 314 313 314 315 314 313 314 314 313 315 316 315 315 315 315 314 314 315 315 314 314 314 315 316 317 318 317 320 321 324 325 324 322 325 324 321 320 320 319 320 321 320 320 320 321 320 318 321 325 325 326 329 327 329 345 351 350 351 350 350 351 350
320 324 322 319 317 317 316 316 316 316 317 320 322 322 318 315 315 315 314 314 314 313 314 313 314 315 314 314 314 315 315 313 313 314 314 315 315 314 314 314 314 314 314 314 315 314 315 314 315 315 316 317 317 319 320 320 323 325 324 325 324 322 322 321 320 319 321 322 322 322 322 322 326 328 324 325 327 328 329 329 341 351 351 351 350 349 349 350
320 324 322 317 317 317 316 316 316 317 319 321 321 318 317 315 315 315 313 313 313 313 313 313 314 314 314 314 314 314 314 314 314 314 313 314 314 313 313 314 313 314 314 313 314 316 317 316 315 315 317 316 316 319 319 317 319 321 322 322 322 323 324 323 322 319 320 322 322 323 322 325 334 335 327 328 328 327 332 331 337 348 352 350 349 350 350 351
322 323 320 316 317 316 316 317 317 318 320 320 319 316 316 316 315 315 314 313 314 313 313 313 313 313 314 314 314 313 314 314 314 314 314 314 314 313 313 313 313 313 313 313 314 316 317 318 317 315 316 316 316 317 318 318 318 318 319 320 321 322 323 321 323 323 319 319 321 323 322 326 334 337 333 331 329 328 334 334 335 346 352 351 350 350 350 352
324 323 318 316 317 317 317 319 319 319 319 318 317 316 316 316 315 315 315 314 313 314 314 313 313 313 313 313 313 313 313 313 313 314 313 313 313 313 313 312 313 313 313 313 313 315 316 318 319 317 316 316 317 318 318 318 318 318 319 321 322 323 321 320 322 325 321 319 320 320 320 325 332 337 335 334 330 328 331 333 335 344 350 351 349 350 350 352
323 322 318 316 317 317 318 319 320 319 317 317 317 316 316 316 315 315 314 314 314 313 314 314 313 313 313 312 313 313 312 313 313 313 313 313 312 313 313 313 312 313 313 313 313 313 315 318 319 318 318 317 317 317 317 318 319 318 320 321 322 323 322 320 321 322 321 321 320 320 320 323 332 338 338 335 333 329 329 330 331 337 345 351 350 349 349 349
322 322 320 318 317 317 317 318 319 319 317 316 317 316 316 315 314 314 313 314 314 313 313 313 313 313 313 312 313 312 313 313 313 313 313 313 313 313 314 312 312 313 314 314 313 312 314 317 318 318 320 320 318 316 318 321 320 318 319 320 321 323 322 322 320 320 323 324 322 322 321 323 334 341 339 338 337 336 335 335 335 335 339 345 348 347 348 350
322 323 320 318 318 317 317 316 317 318 317 316 316 315 315 315 315 314 313 313 314 313 313 313 313 313 313 313 312 312 313 314 313 313 314 314 314 314 314 313 312 313 313 314 314 313 313 315 315 318 320 321 321 320 320 321 318 316 317 318 319 321 320 321 321 321 324 325 323 323 324 328 338 343 339 339 339 339 341 340 339 338 336 339 344 347 348 349
322 321 317 318 318 316 316 316 316 317 316 317 317 316 314 314 314 314 313 314 313 313 313 313 313 313 313 313 313 313 313 313 313 314 314 314 314 314 314 314 313 313 313 313 314 313 313 313 313 316 317 316 317 317 316 316 315 314 315 315 315 318 319 320 322 321 324 324 323 327 329 331 339 342 338 339 339 339 340 339 338 339 337 339 346 349 350 349
321 319 317 318 318 316 316 315 316 316 316 317 318 316 315 315 314 313 314 313 313 313 313 313 314 313 313 313 313 312 313 313 314 314 314 315 314 314 314 314 314 314 314 313 312 313 313 313 313 314 314 312 312 313 312 312 312 312 314 314 314 316 317 318 320 320 323 324 324 330 331 328 335 341 338 338 341 340 339 338 338 339 340 343 347 349 349 350
319 320 317 317 318 317 316 315 316 316 315 316 317 315 315 315 314 313 314 313 313 313 313 314 314 313 313 313 313 313 314 314 314 314 315 315 314 314 314 314 314 314 313 313 312 312 313 313 312 311 312 311 311 312 311 312 312 311 312 312 313 315 315 316 318 319 320 321 322 327 328 325 333 342 341 339 341 340 338 338 341 343 343 344 345 345 346 346
317 318 318 318 318 317 316 316 315 315 315 317 318 314 314 315 314 313 314 313 314 313 313 314 314 313 313 313 314 315 315 314 314 315 315 314 314 314 313 313 314 313 313 313 312 312 313 313 311 311 311 311 311 312 312 312 312 312 312 312 312 313 315 315 317 318 319 320 322 323 326 327 333 343 343 342 340 338 340 342 342 342 342 341 342 342 342 342
317 317 318 318 318 316 316 316 316 316 316 317 317 315 313 314 313 313 314 313 313 313 313 314 313 313 313 313 314 315 314 314 314 314 314 314 314 314 314 314 313 313 312 312 312 313 313 313 313 311 311 312 311 312 312 312 313 312 312 313 313 313 314 314 316 318 319 321 323 323 325 332 338 340 341 340 338 339 340 340 340 339 339 339 338 339 340 340
317 317 317 319 319 316 316 317 316 317 316 315 316 315 314 314 313 313 314 314 313 314 313 312 312 312 313 312 314 314 313 314 314 314 314 314 314 314 314 313 313 313 312 312 314 315 315 314 313 312 313 312 311 312 312 312 312 313 312 313 313 313 314 315 316 318 318 320 322 321 325 337 343 340 339 339 339 340 337 335 336 336 336 336 337 336 338 338
316 317 317 319 319 317 316 317 316 316 316 314 315 314 313 314 314 313 314 315 314 314 313 313 313 313 313 313 314 314 314 314 314 313 314 313 314 313 313 313 313 313 312 312 313 315 314 314 314 313 313 312 311 312 312 313 313 313 313 314 313 313 314 314 315 317 318 318 319 320 327 338 340 337 337 338 338 338 334 331 332 332 332 334 334 334 335 336
Wind_Speed
20 21 21 22 22 22 22 21 20 20 18 17 16 16 16 16 16 16 16 16 17 17 16 16 16 17 18 16 15 15 15 11 10 11 10 5 9 11 10 11 12 14 11 9 11 12 11 13 14 15 16 16 16 16 15 15 14 10 3 1 3 3 3 2 2 4 5 6 5 7 5 4 4 7 9 14 15 18 14 12 15 20 29 29 30 37 38 37
20 20 21 22 22 22 22 21 20 20 19 17 16 16 15 16 16 16 16 15 15 16 16 16 16 16 17 16 15 16 16 14 12 10 6 3 6 9 10 10 10 13 14 13 15 16 13 13 14 15 15 15 16 16 14 13 13 8 3 2 4 4 4 4 1 3 6 9 8 8 6 5 3 5 6 9 12 16 12 10 15 25 33 32 35 38 36 37
20 20 20 21 22 22 22 22 20 20 19 18 16 16 16 15 15 15 15 15 15 15 16 16 16 15 15 15 16 17 18 16 9 5 1 1 3 3 8 10 10 12 14 15 16 16 14 13 13 15 16 15 15 17 14 12 12 10 6 2 5 6 6 7 4 5 6 13 11 7 6 4 5 5 4 5 11 12 11 12 16 27 36 38 38 38 38 36
20 20 20 20 21 21 21 21 20 19 18 17 17 16 16 15 15 15 15 15 15 15 15 15 16 14 14 16 16 17 18 12 3 2 2 4 6 4 4 10 11 13 14 16 17 16 14 14 14 17 16 13 16 17 13 12 10 9 8 5 8 8 6 7 7 8 7 12 12 10 8 5 8 5 3 6 10 7 10 18 23 33 40 41 39 39 38 34
20 20 20 20 20 21 21 21 20 19 18 17 17 16 16 16 16 15 15 15 15 15 15 15 14 14 15 15 15 17 14 6 2 2 4 8 9 8 2 8 11 13 13 15 18 17 16 16 17 19 15 10 12 12 11 16 13 6 8 11 12 7 6 6 8 12 11 13 14 14 12 5 6 3 8 10 6 6 12 22 30 37 43 42 40 40 37 34
20 20 20 20 21 21 21 20 20 19 18 17 16 16 16 16 16 16 15 14 15 15 14 14 13 14 14 13 15 14 8 3 1 3 6 9 9 8 3 6 10 12 13 17 20 17 16 16 17 17 13 8 9 8 12 20 17 7 6 14 13 8 7 4 5 10 15 14 13 14 14 13 7 6 13 14 8 13 16 24 32 35 39 40 40 40 35 34
20 20 20 20 21 21 20 20 20 19 18 17 16 16 16 16 16 15 14 14 15 14 13 13 13 12 12 13 13 10 8 4 1 4 9 10 8 7 3 4 9 12 14 20 22 19 16 15 16 16 11 7 9 10 14 18 18 11 6 10 9 10 9 5 4 8 16 17 14 16 15 16 14 9 14 16 15 19 18 24 33 33 36 37 38 38 34 34
19 19 19 20 20 21 20 20 20 20 19 18 17 16 16 16 16 15 14 14 14 14 12 12 12 10 12 12 10 9 10 6 3 7 12 12 11 6 5 6 7 11 16 21 23 21 15 13 17 16 8 6 10 11 14 15 12 10 8 10 9 14 16 11 10 13 15 19 19 17 12 14 18 13 13 14 17 20 22 26 33 35 36 37 37 34 33 35
19 19 19 20 20 20 20 20 20 20 19 19 18 17 16 16 16 15 14 14 14 13 11 11 10 10 12 9 6 7 5 2 5 9 13 14 14 9 6 9 8 12 16 22 24 20 14 14 15 15 9 9 12 11 14 11 6 9 11 13 11 14 18 15 14 15 10 20 26 14 9 17 23 17 9 14 21 23 25 26 32 37 36 38 38 33 33 34
19 19 19 20 20 21 20 20 20 20 20 19 18 17 17 15 15 15 15 15 13 12 10 9 9 10 11 5 3 4 1 3 6 8 9 10 14 10 6 10 9 12 17 22 24 19 17 16 13 15 13 12 11 10 13 10 7 13 14 14 13 13 17 17 17 17 12 20 31 15 8 20 29 18 6 15 23 23 25 27 33 35 35 39 38 34 33 33
20 19 19 19 20 20 20 20 20 20 20 19 18 17 17 15 15 14 14 14 12 11 10 8 9 10 8 3 3 4 2 7 9 9 6 7 10 8 3 8 7 11 18 22 24 19 16 16 14 14 11 9 11 11 13 14 14 18 16 13 12 12 12 14 15 14 13 15 29 23 10 16 23 14 9 18 24 25 26 28 33 33 32 33 34 35 34 34
21 20 20 19 20 20 19 19 19 20 21 20 18 17 16 15 14 14 13 12 11 11 9 6 8 10 8 6 7 5 6 10 10 8 6 5 6 5 2 3 3 8 17 19 19 15 11 15 17 16 11 8 9 7 9 15 16 16 14 10 10 11 9 9 11 11 8 8 24 27 10 9 13 10 16 25 26 26 26 27 29 30 32 31 29 35 35 33
21 21 20 20 20 19 19 19 19 19 19 19 18 17 16 13 12 13 11 10 10 10 8 5 7 9 8 7 4 3 8 7 5 4 1 1 2 5 4 3 6 8 16 18 15 12 9 13 17 18 18 13 8 8 13 17 13 11 8 5 6 7 6 6 8 11 9 6 18 19 6 6 11 14 22 26 27 28 26 26 27 27 33 32 28 32 34 32
21 21 21 21 20 20 19 19 19 19 18 18 17 17 14 11 10 11 8 8 9 8 7 4 6 8 7 6 3 2 7 3 2 4 3 3 2 5 4 4 8 9 12 15 15 13 12 13 16 17 18 15 13 14 14 14 9 6 5 3 4 3 3 7 9 10 9 10 16 13 2 4 8 18 27 27 27 28 25 27 27 26 30 30 29 31 31 30
21 21 21 21 21 20 20 20 20 19 18 16 15 15 12 9 10 8 6 6 7 8 6 4 4 8 8 10 6 5 7 5 2 1 3 5 4 6 6 5 7 9 11 12 14 14 14 12 15 14 13 14 14 12 6 5 6 5 4 3 3 4 4 8 12 12 10 12 17 13 2 2 4 15 29 29 28 27 24 26 27 27 28 27 30 33 30 30
20 20 20 20 21 20 20 20 20 20 18 15 12 11 9 9 10 6 4 5 6 7 5 3 4 9 9 6 4 8 7 6 1 3 6 5 6 7 7 6 7 9 11 12 13 13 13 12 13 13 12 10 7 6 4 4 5 4 4 3 4 5 5 6 11 14 14 12 15 13 5 3 3 14 29 29 28 28 23 24 27 27 29 27 30 35 31 29
20 20 20 20 20 20 20 20 21 21 18 14 10 9 7 8 9 5 3 6 8 8 6 3 2 8 7 3 3 7 5 5 3 5 7 5 7 8 7 7 9 10 11 12 13 13 11 10 8 9 9 6 3 3 3 4 5 4 3 3 5 7 6 6 8 12 15 12 12 13 8 7 8 16 30 30 28 29 22 22 25 26 28 27 29 35 31 30
19 20 20 20 20 20 20 20 21 20 17 12 9 11 7 6 9 7 4 7 8 7 5 3 3 3 6 4 7 8 3 4 5 7 7 5 6 7 6 7 7 10 11 11 13 14 9 7 6 4 4 5 4 5 5 6 5 4 5 5 6 8 8 8 7 8 13 14 12 13 10 8 11 15 25 32 30 28 24 23 26 25 26 26 28 33 29 31
18 19 20 20 20 19 19 20 20 17 13 10 9 11 8 9 10 3 4 10 7 4 3 4 7 3 6 7 8 7 5 7 10 9 6 4 4 6 6 7 7 10 10 7 8 12 8 5 6 4 4 6 7 8 7 6 6 8 9 6 5 6 8 10 10 10 9 13 11 13 12 8 14 15 18 27 29 26 24 25 27 26 25 24 26 31 30 31
18 19 20 20 19 18 18 18 15 12 10 10 12 12 12 15 9 2 10 15 10 10 12 11 12 13 12 12 9 8 9 10 11 7 4 3 3 5 7 8 8 9 8 4 6 12 11 5 5 6 6 8 9 10 11 10 10 12 10 7 8 6 6 8 10 13 9 9 10 12 13 11 16 15 15 23 25 23 23 23 23 25 26 24 26 31 31 31
18 19 20 20 19 17 17 15 11 9 10 11 13 12 12 14 7 5 15 17 13 14 18 19 18 17 15 12 10 10 10 9 8 4 4 3 3 3 5 7 7 5 6 7 6 10 11 6 5 8 9 10 10 10 12 12 13 13 10 7 8 7 7 10 11 13 9 6 10 12 12 13 18 16 15 20 19 18 23 24 22 25 26 25 27 32 32 31
19 20 20 20 18 17 15 10 7 9 11 12 11 9 9 11 8 9 12 13 16 14 14 17 14 12 14 12 9 10 8 9 9 8 5 1 4 5 6 7 5 3 6 8 6 5 7 6 8 10 10 10 11 11 11 12 12 11 8 6 6 6 8 11 11 11 8 3 8 14 11 12 20 19 17 19 17 20 29 31 30 30 28 26 27 30 33 33
20 20 20 19 18 17 14 8 6 9 12 12 11 8 9 11 9 10 10 11 15 13 12 13 11 11 12 8 6 6 7 10 7 7 6 3 5 7 7 6 5 5 6 7 6 5 4 5 10 12 10 10 11 12 11 10 9 7 6 5 5 8 8 7 7 7 5 4 7 13 11 9 16 17 16 22 23 23 30 34 35 35 32 30 30 30 32 36
22 21 20 19 18 18 14 7 4 8 11 12 11 7 8 11 10 12 11 8 9 10 12 12 10 11 8 4 5 5 5 10 7 3 4 5 4 5 6 6 5 5 5 7 9 8 7 8 13 14 12 12 11 11 11 8 6 6 8 7 6 9 11 8 7 8 6 7 7 9 7 5 12 15 13 18 21 22 29 31 30 33 35 31 30 31 33 36
23 22 21 20 20 19 15 7 5 7 8 8 8 7 8 11 12 13 9 5 5 5 8 8 7 7 5 3 7 7 7 9 6 2 4 3 3 2 4 5 5 4 5 8 9 8 9 12 14 12 12 13 12 10 10 7 5 6 8 10 9 12 14 13 11 8 5 5 6 5 5 3 10 17 14 14 15 17 24 26 25 31 34 29 28 32 34 34
22 23 22 20 20 21 15 6 5 7 7 8 9 10 11 11 13 11 5 3 2 3 4 5 6 5 4 4 6 8 7 3 3 2 2 3 6 5 5 4 3 4 6 6 5 4 6 11 13 11 11 12 12 10 9 9 6 5 6 9 12 12 14 16 12 8 2 4 8 4 4 3 7 14 15 16 16 17 20 20 23 31 33 28 28 33 34 32
22 22 22 19 18 20 16 8 5 6 6 10 11 11 11 11 11 9 3 3 1 4 4 5 5 2 4 4 4 4 3 0 3 1 1 1 3 3 3 5 4 5 6 4 2 3 5 9 11 11 12 9 9 8 8 10 6 4 7 9 11 12 13 15 11 6 4 4 8 7 1 3 6 10 15 18 17 17 18 17 20 27 32 32 31 35 36 34
22 22 22 18 15 15 14 9 6 5 5 10 13 12 10 10 10 7 2 1 0 4 4 4 2 2 3 2 3 5 4 2 3 3 5 3 2 4 4 5 6 7 8 5 3 5 7 7 8 9 11 7 6 7 9 12 9 5 8 11 10 9 11 13 9 5 3 4 7 7 5 2 3 6 14 18 17 16 17 18 18 23 31 33 32 36 39 37
20 20 21 18 12 10 11 6 5 6 6 9 15 13 9 10 9 4 2 1 1 3 4 5 3 1 3 3 5 8 8 6 4 5 7 6 5 5 4 5 7 8 9 7 5 6 9 10 7 5 7 6 7 8 8 11 8 6 9 11 10 7 7 7 6 4 1 3 8 7 5 2 3 3 10 13 14 14 16 17 17 23 33 35 33 36 39 38
19 18 19 18 12 8 9 4 4 8 9 12 15 11 8 9 6 2 2 1 3 3 4 5 4 4 6 5 6 8 6 5 3 3 5 8 8 8 6 8 7 5 7 7 7 7 12 18 15 7 7 8 9 10 9 9 7 6 8 8 7 7 5 3 2 2 1 3 8 8 5 3 4 4 6 8 12 15 14 14 16 21 30 35 35 37 39 38
18 16 16 16 11 8 7 3 3 6 9 12 12 10 9 6 2 1 1 1 2 1 3 5 3 4 7 5 3 6 4 2 1 1 4 5 6 8 6 6 4 2 4 5 6 7 10 14 10 7 12 12 8 8 9 10 8 5 5 3 3 4 3 2 4 4 1 3 6 6 7 6 5 5 6 6 12 20 19 16 17 20 27 35 38 39 42 40
17 15 13 11 8 6 6 5 6 7 7 10 11 10 8 2 2 2 1 0 1 2 0 3 2 0 2 5 2 5 2 0 1 1 2 2 2 4 3 2 1 1 3 3 3 5 8 9 6 8 15 12 7 5 5 6 7 5 5 3 3 3 2 1 1 1 1 4 6 7 6 6 5 5 7 8 7 14 19 22 26 26 31 38 40 41 43 42
16 13 9 6 6 8 9 7 5 4 6 11 11 9 5 0 0 1 3 3 1 2 2 3 2 2 4 5 1 3 2 0 1 1 3 3 3 1 5 8 7 4 2 2 5 4 4 7 7 7 8 6 5 4 2 3 4 5 5 4 4 2 2 2 2 2 3 3 6 9 8 4 3 4 7 9 6 6 9 25 40 40 40 44 44 44 43 42
14 8 6 5 4 7 11 10 6 6 8 11 9 6 2 1 1 4 7 6 3 2 1 4 3 3 4 3 1 1 1 0 0 2 4 4 4 2 7 11 11 7 4 3 4 4 4 5 4 1 4 4 5 8 6 4 4 4 1 2 2 2 2 2 3 4 4 4 6 9 6 2 3 3 7 10 9 12 15 19 43 47 45 47 44 42 41 40
11 3 4 6 6 7 8 9 9 8 7 10 6 3 1 1 3 5 6 6 6 6 6 4 4 4 4 4 2 3 3 2 2 2 3 3 2 2 4 6 10 8 5 4 3 4 6 6 4 9 13 11 7 8 9 5 4 3 1 1 3 4 3 3 3 3 4 4 5 6 5 3 4 6 8 11 12 13 17 14 33 41 40 41 40 40 40 40
9 2 3 7 8 9 8 7 7 5 5 8 3 2 1 2 4 4 5 7 7 7 8 6 4 3 3 4 4 5 3 1 1 1 3 2 4 7 6 6 9 10 7 4 2 4 5 7 8 13 15 12 13 12 7 6 3 2 3 5 6 6 4 2 4 6 3 2 3 4 5 3 4 5 8 11 13 12 14 10 21 36 37 37 39 40 41 42
9 6 5 8 8 8 8 5 3 0 4 5 2 3 3 4 7 6 6 8 8 8 7 5 3 3 3 0 4 5 2 1 1 1 3 2 4 9 7 8 11 11 9 6 2 4 5 9 11 10 11 15 23 25 12 8 10 3 2 5 5 4 5 2 1 4 3 3 3 5 6 4 7 5 6 11 12 12 14 9 16 33 37 37 39 42 45 46
9 8 5 6 7 6 5 3 2 2 4 3 3 5 4 4 9 10 8 8 8 8 5 3 4 5 4 4 2 1 1 1 1 1 3 1 4 10 8 7 12 14 13 10 4 3 5 7 11 7 7 16 20 19 13 3 13 11 6 4 1 2 4 3 2 2 2 3 3 5 7 4 7 6 8 13 12 12 16 9 13 26 29 33 38 41 44 45
9 10 4 4 5 6 5 3 2 3 6 2 3 5 2 5 7 9 8 7 6 5 4 4 5 5 4 6 3 2 3 3 1 2 4 3 3 8 10 6 8 14 14 10 4 3 3 2 8 7 8 14 13 5 5 8 4 10 8 5 2 1 2 3 2 2 2 2 2 5 6 4 5 7 11 16 15 14 15 9 11 22 28 33 37 38 40 41
9 7 4 5 6 4 3 2 2 6 5 2 2 4 7 6 8 12 11 8 5 3 3 5 5 5 6 8 7 5 5 5 3 2 3 5 5 7 12 10 7 10 12 9 6 4 3 1 6 9 10 9 7 3 5 11 9 6 5 5 4 3 2 2 2 3 3 3 1 3 4 5 5 5 9 15 16 13 12 9 8 18 30 34 35 36 37 38
9 4 3 9 4 2 3 5 4 5 4 1 1 4 7 6 7 11 11 8 5 4 2 3 4 5 5 6 7 7 5 4 5 3 3 7 7 4 9 11 10 8 7 6 6 5 3 1 4 9 8 6 9 11 11 12 11 9 7 6 6 4 3 3 4 4 4 4 3 3 4 6 5 3 3 8 13 12 11 10 8 19 33 33 32 34 35 37
10 3 4 8 4 4 5 6 3 2 2 1 1 4 7 6 6 8 8 4 5 6 3 1 5 6 6 5 5 5 6 4 3 4 4 8 9 5 9 13 13 10 7 4 6 8 5 2 3 7 7 9 16 19 16 12 11 11 8 6 6 5 3 3 3 4 4 5 5 3 4 7 6 7 12 5 12 15 13 10 7 18 35 38 37 38 39 42
11 7 3 4 5 3 4 3 2 2 3 3 2 4 6 5 6 11 10 5 5 9 7 3 8 6 6 8 6 6 7 4 3 4 4 7 9 8 11 16 15 10 7 4 5 10 8 1 2 6 7 9 15 16 13 8 8 8 7 8 8 7 7 4 2 5 4 3 4 4 5 7 6 9 14 11 2 11 16 16 9 10 24 36 42 44 44 45
16 12 4 2 7 6 3 2 3 2 2 3 3 6 4 3 8 11 9 8 9 8 8 6 7 3 4 8 7 5 5 2 3 6 5 3 5 8 11 15 14 9 6 3 4 7 5 2 3 5 6 7 9 9 6 7 10 7 7 11 12 13 13 7 5 6 4 6 7 0 6 6 5 12 17 17 13 9 9 9 9 15 10 17 25 34 42 42
12 9 7 7 11 10 7 8 6 4 5 5 6 7 3 4 11 10 8 10 10 7 7 8 9 9 5 4 3 4 5 4 4 6 7 6 3 8 14 14 11 7 4 6 9 7 3 2 3 2 3 5 5 4 4 6 8 7 10 14 15 15 15 8 3 4 3 8 11 4 4 6 7 13 16 17 16 16 19 22 27 32 26 17 15 2 30 43
7 5 8 9 13 17 15 15 12 7 6 6 4 6 5 4 8 8 7 8 8 8 7 8 10 11 8 5 4 6 7 7 7 6 6 7 6 8 16 15 9 6 4 6 9 6 1 2 2 3 4 6 8 8 10 11 11 11 15 18 17 15 14 7 2 3 3 6 7 4 5 10 10 11 14 13 15 16 17 20 24 28 28 28 38 34 11 28
7 3 5 5 8 13 13 15 15 8 7 8 3 4 8 4 6 6 5 4 7 10 8 7 8 7 7 9 7 6 9 9 9 8 7 7 8 10 15 17 11 6 5 7 7 3 1 3 5 6 8 10 12 14 16 15 14 15 17 17 16 15 15 10 4 5 7 6 5 6 9 11 9 10 13 13 14 15 14 16 19 24 28 28 36 43 34 22
6 5 9 7 2 2 3 7 9 8 9 9 3 4 9 6 7 6 4 2 6 11 9 5 7 8 7 8 6 4 7 7 6 7 7 6 7 8 10 13 11 4 3 3 5 3 1 3 6 7 9 12 13 14 16 14 13 16 17 16 15 15 15 13 9 7 7 5 6 10 13 12 9 7 11 11 12 13 14 18 23 27 31 32 33 35 36 35
8 6 12 14 6 3 4 7 8 8 8 6 4 6 9 8 9 10 9 6 5 10 9 4 7 10 10 8 6 3 4 5 5 5 5 6 7 6 5 7 9 7 3 1 2 2 1 2 6 8 9 11 13 13 15 15 14 15 16 15 14 14 15 16 12 8 9 10 10 10 13 11 5 1 2 8 14 18 20 24 29 30 31 31 31 31 32 33
12 8 10 15 11 9 11 9 6 6 5 5 4 5 8 8 9 10 9 7 6 7 8 6 8 11 10 9 6 4 5 7 8 6 6 6 6 5 4 3 5 8 6 2 1 2 2 2 6 7 7 9 12 13 14 14 14 15 16 14 13 13 16 16 12 8 9 10 9 10 10 7 4 1 3 11 22 24 24 25 26 27 29 30 29 29 29 32
9 7 8 11 7 6 10 9 6 5 4 5 4 5 7 8 8 6 6 8 9 7 6 8 8 7 8 9 7 6 9 10 10 10 9 8 8 7 6 6 7 7 5 3 1 2 1 3 5 4 4 6 9 12 14 15 15 15 15 14 12 12 13 12 9 6 9 11 9 10 8 3 3 4 9 18 21 20 21 23 23 25 29 30 29 29 29 30
6 5 9 10 4 2 5 6 7 6 3 3 4 4 3 5 7 6 3 7 9 7 6 8 8 5 5 7 7 8 12 12 12 14 14 13 15 15 14 15 14 10 5 4 3 2 2 2 2 2 4 6 9 12 13 12 11 9 10 11 10 9 10 12 10 8 11 12 8 5 4 3 4 5 10 14 14 14 18 22 23 25 28 29 28 28 29 29
Wind_Direction
355 354 352 353 353 353 352 351 350 348 346 345 343 342 341 342 343 342 340 338 336 336 337 338 335 332 332 331 329 332 335 324 301 278 270 243 195 200 209 206 210 208 197 197 173 169 192 187 184 183 193 216 221 230 242 235 215 197 152 168 256 259 257 251 74 45 97 134 162 158 189 234 227 239 182 136 134 136 138 148 154 151 143 145 148 150 151 151
353 351 350 351 352 352 351 350 349 347 345 344 341 340 339 339 340 340 339 338 337 336 335 334 334 332 331 331 326 327 334 327 309 287 269 238 216 207 209 214 210 206 202 198 177 172 192 192 191 194 203 223 220 222 238 235 224 215 153 165 238 231 229 252 131 114 118 127 157 163 159 198 229 259 194 145 142 144 139 152 155 142 138 144 148 151 154 154
351 349 347 349 350 350 350 349 349 346 344 342 340 338 336 336 337 336 337 337 336 334 333 332 332 333 332 330 324 326 333 328 322 319 297 30 309 236 211 217 212 206 204 197 179 172 189 196 192 197 207 224 222 220 227 222 222 218 201 214 239 222 231 254 213 162 136 129 138 141 141 214 235 235 231 160 147 146 146 156 148 135 137 145 152 156 157 157
348 346 346 347 348 350 349 348 348 346 343 340 339 336 333 334 332 332 335 336 334 333 333 330 331 335 333 329 325 328 332 337 4 3 356 8 358 346 225 211 210 210 204 193 179 173 194 208 195 198 210 224 225 222 227 222 212 203 198 235 244 210 215 243 197 167 163 149 139 126 138 228 239 216 234 179 151 148 158 158 147 138 143 149 154 159 161 159
346 345 345 345 348 349 349 347 347 345 343 339 337 334 332 331 329 329 332 334 332 332 333 331 334 334 332 328 325 330 336 3 82 273 334 346 354 6 311 206 206 208 202 191 182 180 203 222 209 204 213 228 230 223 234 228 219 219 209 235 246 189 182 236 191 174 170 156 140 134 138 174 230 212 198 200 174 165 162 154 147 144 149 153 155 161 164 160
345 344 344 345 346 348 348 347 345 344 342 338 335 332 330 328 327 327 330 333 331 332 334 334 338 334 332 328 326 334 339 30 67 281 334 342 344 358 342 205 207 205 198 190 188 192 205 228 226 212 210 226 241 233 238 229 222 238 224 243 249 180 181 246 202 182 163 150 141 147 140 141 183 245 206 207 199 171 160 154 150 147 153 155 157 162 165 162
345 344 343 344 345 347 347 346 345 343 341 337 335 331 328 326 325 326 328 331 330 332 335 337 340 335 333 329 330 334 312 306 1 301 313 317 321 328 309 217 211 207 197 189 190 198 205 232 238 220 209 216 240 245 250 243 228 226 221 247 239 178 204 232 220 198 161 150 146 154 145 139 163 216 219 211 200 177 157 156 155 152 154 154 160 164 165 163
344 344 342 343 344 345 346 346 344 341 339 336 334 330 326 325 323 325 326 327 328 331 335 339 340 335 332 331 339 331 301 295 338 329 322 311 315 317 262 239 225 212 201 191 190 192 202 242 240 221 213 218 232 237 248 256 244 233 229 236 205 184 214 222 215 212 168 142 139 157 156 140 157 188 215 195 180 170 154 155 154 153 156 156 163 167 165 162
344 343 342 342 342 344 345 345 343 340 338 335 332 329 326 324 323 323 323 323 326 328 334 338 334 331 329 331 355 330 295 6 344 334 340 323 318 320 253 238 232 221 206 192 191 192 208 246 238 219 225 239 238 241 247 250 248 245 241 238 217 197 213 214 206 211 185 135 134 161 170 153 172 190 201 165 156 157 155 155 151 151 158 162 167 168 164 163
344 343 342 341 341 342 343 343 342 339 335 334 332 329 327 324 322 321 320 321 323 326 332 333 328 329 328 336 14 320 257 27 319 312 335 317 313 321 247 229 227 220 206 193 192 197 215 236 235 225 238 256 254 261 262 258 266 267 265 261 248 227 217 207 204 204 193 145 137 158 190 169 184 192 178 162 158 158 161 158 152 153 161 165 168 168 165 167
343 342 341 340 340 339 340 340 340 337 333 332 330 329 329 324 321 318 317 319 321 326 329 325 325 329 332 325 270 266 336 332 302 294 289 275 304 326 232 221 223 208 202 196 197 203 221 237 244 236 233 249 260 272 274 273 281 284 288 294 285 271 241 209 217 212 195 163 147 153 178 179 187 192 169 163 156 156 160 156 156 161 165 167 169 168 169 173
342 342 340 339 338 337 338 338 337 336 332 329 327 329 328 323 319 315 316 320 322 327 325 320 329 334 332 301 260 263 336 321 304 292 255 259 295 309 311 212 246 218 198 196 201 207 232 248 253 252 246 244 249 262 287 281 276 280 287 294 292 292 273 219 229 228 210 180 158 154 157 181 191 184 161 159 154 156 157 155 162 164 162 168 171 169 173 177
342 341 339 337 336 335 336 337 337 335 333 328 324 326 327 322 316 313 316 319 323 326 318 314 335 339 325 296 269 321 342 310 304 344 211 328 275 268 306 202 259 252 194 193 207 213 237 252 253 256 259 262 263 273 300 297 276 267 269 263 271 283 285 260 246 228 221 210 173 159 153 197 189 168 154 155 157 158 156 157 166 163 158 169 178 172 176 177
341 340 338 336 335 334 335 337 337 337 335 329 322 322 323 320 315 312 314 317 321 317 305 310 345 350 320 284 257 323 352 325 262 30 60 346 296 252 281 195 236 246 196 203 225 236 250 252 253 259 263 265 282 292 299 304 291 269 253 246 262 251 264 263 250 222 213 219 183 155 167 209 164 158 156 156 159 159 157 159 166 165 162 171 178 175 177 180
339 339 338 336 334 334 335 336 338 340 338 333 323 319 319 320 321 314 307 312 313 308 305 306 348 351 307 289 274 248 336 349 205 315 318 309 304 244 238 207 222 228 215 228 240 253 265 255 241 249 263 265 279 291 294 303 296 283 254 244 234 226 241 244 243 223 205 210 181 153 166 184 123 156 159 160 161 161 159 159 163 168 171 173 174 175 179 184
335 337 338 337 334 334 335 336 339 340 341 339 327 318 313 315 324 317 308 317 308 306 316 317 357 347 307 288 271 233 280 323 258 298 301 300 294 258 235 213 213 223 226 236 244 254 270 270 243 233 247 260 263 265 289 298 276 268 245 243 232 223 226 231 247 229 204 200 182 170 165 124 159 168 160 162 161 160 159 156 162 168 174 174 168 173 180 185
333 336 338 337 334 334 336 338 340 340 343 344 334 328 311 301 321 321 307 321 308 295 303 302 340 321 285 215 276 260 265 313 308 299 290 284 281 268 250 222 206 216 225 231 239 244 256 269 257 231 228 245 252 224 250 253 245 265 238 238 255 245 235 221 242 230 202 196 187 180 174 146 171 170 161 163 159 158 158 153 163 167 169 172 166 172 183 187
332 335 338 338 335 335 336 340 342 339 345 352 339 334 325 307 317 306 299 324 313 297 295 235 180 299 279 231 278 287 306 310 292 300 297 285 268 254 260 250 207 206 222 226 230 229 230 241 246 243 215 220 242 219 215 224 224 246 230 216 232 240 252 243 244 238 197 191 188 173 178 157 154 166 163 166 164 160 160 156 166 169 165 172 169 173 183 185
332 336 339 338 337 338 338 343 344 341 351 11 359 348 2 352 329 317 9 337 307 287 294 218 196 243 290 283 283 280 294 285 279 294 298 290 270 236 249 262 217 205 213 210 207 208 211 223 226 232 222 210 217 223 234 248 240 244 248 241 232 228 239 240 245 253 208 183 184 168 177 160 145 162 163 167 167 159 157 156 164 171 170 178 175 174 183 183
335 337 339 339 339 340 342 346 352 350 355 16 15 12 19 4 345 65 357 323 279 265 278 267 250 254 278 304 315 307 306 290 275 266 237 259 286 232 233 245 229 215 213 205 184 196 205 224 221 219 231 222 217 223 237 258 263 264 270 273 275 272 251 238 236 247 230 181 184 170 174 161 143 156 163 165 163 151 152 153 161 172 177 186 181 177 184 184
337 337 339 340 339 343 347 351 6 11 360 1 8 15 19 9 355 334 336 316 288 275 270 273 270 264 280 300 307 309 307 291 272 218 180 262 273 218 212 225 235 220 207 231 223 197 202 226 229 219 228 235 234 227 224 238 255 266 275 280 281 283 277 266 247 239 237 192 182 177 174 158 146 156 166 164 160 154 156 154 162 175 181 190 186 179 184 184
338 338 341 340 339 345 348 352 13 14 6 359 0 15 15 6 347 320 323 305 298 289 262 268 270 262 273 273 277 290 281 272 256 199 168 279 231 206 190 193 228 224 190 224 243 210 201 223 238 234 231 232 241 245 235 230 238 250 265 275 277 280 284 278 261 239 230 190 175 182 181 158 154 161 165 164 165 167 165 161 166 177 184 191 187 181 181 181
337 338 342 341 339 345 346 346 1 356 355 347 342 1 1 350 339 321 314 291 294 292 257 254 248 248 259 238 231 265 255 269 266 170 158 275 230 214 211 199 225 233 204 204 218 233 230 210 220 236 245 239 236 242 247 244 236 236 247 259 268 270 275 279 277 267 248 232 195 183 180 161 158 160 164 170 168 164 166 166 170 178 186 188 186 184 179 178
337 337 342 342 337 343 346 335 331 336 331 325 327 347 352 341 332 327 321 283 279 284 257 241 231 243 256 220 219 253 258 273 287 132 161 270 246 207 228 232 227 232 230 219 216 227 246 234 216 217 228 240 246 239 238 247 246 233 232 240 262 266 269 277 285 296 295 267 229 176 168 172 163 159 162 173 166 157 161 166 171 180 186 187 186 186 182 180
337 337 340 342 337 339 347 331 294 314 322 334 349 355 353 338 323 327 326 279 259 258 238 222 214 234 257 254 241 250 275 272 266 166 165 253 292 283 297 282 245 240 244 236 231 226 239 251 243 227 216 221 238 246 235 233 243 247 228 220 240 262 271 280 290 304 315 287 264 178 165 207 172 164 163 169 167 161 163 166 171 179 186 189 185 183 183 182
336 335 335 340 337 335 346 346 292 315 352 11 358 347 348 333 323 333 329 272 264 182 187 186 194 222 223 217 222 239 279 274 171 110 141 252 284 287 313 309 257 250 257 253 254 243 225 236 245 248 236 217 219 237 244 237 233 249 241 217 220 241 264 274 285 299 293 275 282 246 176 186 179 172 167 167 170 167 167 170 173 177 183 187 183 180 182 184
332 331 328 335 341 334 340 345 303 307 2 8 348 339 337 322 329 344 308 255 247 169 154 162 180 171 166 187 208 228 302 27 173 241 158 230 290 251 271 294 278 262 268 276 269 259 245 230 232 246 251 236 216 217 231 241 241 233 250 250 226 218 243 262 272 275 268 292 293 292 262 176 187 187 174 169 169 168 169 171 173 178 181 183 182 182 184 186
327 325 322 331 343 332 327 336 333 311 342 357 339 329 327 321 332 340 299 284 135 169 145 142 165 127 153 207 239 238 289 277 221 193 177 219 296 189 211 269 278 278 277 283 272 269 267 235 217 234 249 251 237 218 207 224 242 239 245 262 254 224 228 244 254 253 272 309 295 305 325 261 217 186 169 168 170 169 174 176 174 179 180 180 180 182 187 187
325 321 319 329 340 327 313 324 3 350 355 346 326 323 331 328 327 318 272 332 151 169 151 143 142 164 201 233 225 233 260 251 215 148 176 239 252 201 230 270 275 295 294 289 281 273 281 284 290 276 257 254 252 249 223 214 227 235 245 264 274 276 260 245 243 241 243 265 264 286 318 296 273 196 157 167 178 174 178 182 180 180 180 180 180 181 185 187
328 320 319 327 336 322 300 307 16 4 356 329 317 331 340 324 314 261 244 234 152 161 163 141 126 179 212 238 211 208 241 246 213 144 188 233 220 200 247 268 263 294 300 294 291 280 287 295 302 301 273 265 253 257 256 242 237 226 232 254 274 290 307 315 330 14 58 251 259 275 288 290 287 239 171 169 183 179 177 180 183 182 180 181 181 181 183 186
331 323 324 328 335 324 295 308 350 343 340 323 323 341 329 305 282 259 308 85 112 204 178 126 106 182 212 259 214 180 220 251 158 156 220 225 194 192 224 242 236 277 290 282 282 276 277 284 288 283 281 281 260 249 253 251 256 251 230 223 256 280 302 350 5 16 25 268 278 281 273 267 267 243 213 200 184 176 174 173 178 181 181 183 183 183 185 186
331 328 333 336 353 356 324 309 286 285 334 344 338 329 310 269 188 246 269 73 65 310 327 96 75 258 278 291 228 151 160 295 74 1 287 265 224 218 215 182 148 269 270 275 291 273 257 255 254 268 276 277 267 263 257 244 244 250 241 199 178 242 269 281 350 340 230 254 282 293 290 263 248 248 246 251 214 182 176 173 176 178 179 183 185 184 185 187
334 338 357 14 33 32 15 352 292 286 2 353 328 306 290 284 263 315 335 343 103 269 314 58 49 2 339 318 4 85 65 114 226 353 6 330 297 325 52 43 24 359 312 334 332 313 271 254 238 240 256 248 243 252 264 270 242 233 224 173 162 200 219 210 181 215 250 267 268 277 291 268 241 277 266 263 261 245 211 179 177 180 181 184 186 183 182 184
338 352 44 46 32 31 24 14 16 33 4 333 312 294 269 262 304 48 23 8 28 314 12 71 10 317 297 292 53 59 335 98 93 16 4 325 303 8 53 39 28 17 356 5 345 327 332 296 249 256 324 296 255 232 225 259 257 249 250 130 188 216 204 221 176 169 210 240 234 242 258 208 176 256 269 275 267 269 274 200 178 182 184 183 183 180 179 181
344 16 64 35 21 20 18 12 26 38 341 312 299 277 269 279 324 32 23 4 2 355 18 25 301 276 264 254 166 97 47 50 62 24 307 285 326 47 77 44 35 34 14 12 358 331 330 302 306 342 329 318 306 256 231 253 280 245 172 167 242 241 242 251 240 215 201 220 226 216 221 185 184 219 232 262 267 256 268 226 177 179 183 178 176 178 180 181
360 2 344 358 1 1 8 8 17 30 307 300 294 266 300 36 20 25 9 356 357 348 346 328 284 252 249 225 145 98 72 17 88 85 255 252 24 33 68 58 34 44 46 27 320 349 346 287 307 339 323 316 334 320 259 215 258 284 196 208 218 229 252 252 262 284 276 249 252 216 223 200 197 241 225 238 261 250 254 241 172 174 177 174 175 178 179 180
21 21 3 5 4 1 10 6 3 346 261 279 294 299 312 15 30 34 12 351 344 334 327 323 340 330 304 118 110 105 97 292 83 69 263 201 42 19 52 69 44 47 49 37 8 24 9 293 300 340 323 317 335 335 316 206 199 242 265 216 194 216 264 267 246 289 281 258 256 229 245 204 182 234 231 221 244 244 248 252 166 171 175 174 178 179 179 181
11 5 12 30 25 5 354 5 95 186 245 264 278 281 288 35 38 30 13 353 337 326 321 344 356 332 339 20 38 140 76 358 110 341 308 127 56 16 28 53 46 42 33 32 31 10 12 307 301 337 339 328 335 336 333 258 201 215 260 271 200 205 248 245 231 267 266 266 272 262 268 229 184 199 205 212 224 227 239 242 160 166 174 175 179 180 179 181
356 346 346 36 15 347 343 34 66 262 257 260 279 289 6 64 48 35 22 0 344 335 339 10 2 337 3 23 357 318 10 19 33 344 353 69 71 21 19 21 40 35 17 20 37 343 21 317 290 324 1 343 329 315 0 358 250 227 259 285 271 246 231 225 217 222 252 251 261 282 283 252 214 197 191 203 209 211 226 228 167 166 173 177 179 180 179 179
349 330 322 348 337 327 337 345 312 277 262 274 312 357 31 35 38 49 42 8 357 26 358 353 1 350 3 23 18 8 13 22 28 340 354 56 74 34 28 23 23 23 7 8 32 15 18 92 279 310 348 345 308 286 10 359 335 290 293 296 277 276 280 281 258 220 234 238 234 281 285 276 260 211 194 202 201 200 205 207 185 168 172 178 177 175 176 175
345 288 325 352 3 87 329 289 261 248 242 269 339 22 26 18 25 49 47 4 358 73 49 341 11 359 349 18 21 9 359 2 21 5 3 51 64 52 41 26 360 4 7 8 39 33 359 14 298 302 327 326 294 306 328 333 324 314 311 308 296 280 245 259 273 243 226 215 225 267 269 269 278 326 307 220 193 188 187 191 187 166 169 174 172 171 175 175
352 322 4 4 44 74 316 286 261 257 280 6 14 18 16 357 344 26 48 6 355 30 3 335 43 12 354 26 31 10 2 350 358 6 40 66 64 60 55 35 8 5 13 9 44 28 348 302 305 297 303 303 293 299 308 308 301 296 297 314 319 308 275 253 268 283 263 207 205 244 278 272 281 332 332 289 179 176 178 174 155 155 164 170 170 173 178 180
342 318 332 5 15 4 289 287 12 12 22 27 11 22 22 353 352 23 28 6 14 7 342 41 62 35 23 29 20 13 13 355 337 0 40 78 69 52 44 34 19 18 21 359 14 12 349 297 334 312 300 301 294 292 300 318 331 314 312 333 335 327 319 306 337 341 316 242 199 199 234 270 307 356 347 336 176 170 176 179 176 151 161 170 175 177 178 181
337 319 301 336 334 315 267 320 2 29 40 32 39 44 52 31 31 36 11 0 33 7 336 35 39 355 47 33 3 7 15 344 353 8 10 52 89 81 60 45 35 40 59 42 8 12 358 349 18 341 315 316 310 304 313 357 10 348 318 331 334 339 351 4 16 7 350 346 352 295 214 264 349 27 14 2 10 45 90 109 70 45 80 159 177 185 183 180
339 327 341 354 351 358 18 17 13 30 9 9 38 34 42 54 43 40 359 0 34 7 336 25 4 336 32 45 329 357 357 323 347 10 9 353 23 65 48 42 42 38 45 27 13 17 13 338 0 346 305 303 304 322 339 347 348 325 313 325 329 341 358 12 4 350 346 345 345 322 249 303 357 30 24 9 12 35 45 46 48 39 32 40 37 125 190 185
325 335 355 357 10 21 27 23 27 45 10 3 39 10 360 76 72 51 15 3 25 6 355 28 10 357 25 22 354 9 351 338 352 3 12 349 338 26 17 3 6 10 354 3 6 5 355 301 274 240 256 273 278 293 305 308 310 306 311 320 321 329 339 338 330 336 314 322 319 285 323 338 349 23 30 13 11 32 38 34 44 38 26 30 34 36 111 176
322 352 12 355 8 18 23 19 22 38 16 5 37 337 337 39 80 53 45 36 18 11 13 28 16 9 23 15 12 11 349 347 356 357 9 360 344 6 360 339 340 21 26 357 345 335 269 263 264 255 256 266 275 285 292 296 298 298 301 308 314 321 323 318 318 332 326 320 302 307 342 340 324 356 22 19 17 30 31 24 33 34 29 37 43 43 49 56
348 358 14 12 330 311 28 33 25 39 31 12 21 346 343 22 60 36 28 24 22 33 37 20 10 16 18 13 11 1 350 346 346 357 10 0 344 357 352 324 318 359 53 339 308 291 262 265 278 284 279 282 287 288 291 293 291 291 289 293 305 314 315 310 306 320 326 306 293 312 322 313 301 340 2 4 17 28 25 22 29 34 35 39 44 45 42 38
12 358 3 3 346 317 20 46 53 57 44 13 8 14 360 15 39 24 6 346 7 46 43 354 357 11 2 1 7 355 347 337 330 353 1 342 336 340 328 309 318 342 12 226 256 288 311 275 287 296 296 297 299 298 300 300 293 288 285 286 297 302 298 294 293 304 302 280 279 297 299 299 316 80 305 340 9 24 30 30 31 34 36 35 36 37 36 34
15 6 350 344 350 4 353 359 48 70 54 22 14 21 7 12 28 17 1 356 357 26 29 360 359 2 345 343 352 326 337 349 342 341 343 335 329 319 302 295 313 322 315 287 6 33 36 310 301 303 298 294 298 301 301 296 290 289 286 283 287 286 282 282 285 295 292 284 299 317 307 312 354 57 93 36 23 25 34 34 28 28 32 33 31 30 29 29
9 17 2 336 335 360 337 337 39 62 56 37 24 26 12 11 30 15 346 11 12 4 17 10 358 352 336 329 332 333 346 350 336 325 324 312 292 284 293 303 302 307 311 301 332 72 69 297 299 305 296 289 294 295 294 295 295 292 290 284 274 267 270 276 284 295 293 293 315 330 325 324 326 342 54 56 39 29 33 33 27 24 28 32 29 24 22 22
17 48 25 359 326 325 352 20 44 40 64 64 45 63 34 352 24 37 11 13 7 350 9 8 340 334 333 318 330 348 344 332 314 305 300 292 289 287 286 289 287 285 289 285 263 175 176 251 282 309 298 287 290 293 297 303 302 293 291 290 281 273 275 280 282 276 275 283 295 316 330 339 334 7 48 57 49 41 35 31 29 26 26 29 27 20 17 15